STARLINK-35706

Last updated on Fri Dec 19 2025 00:02:10 GMT+0000 (Coordinated Universal Time)

1 67051U 25294X 25351.83335648 -.01400037 58520-3 -31937-2 0 9992 2 67051 43.0004 151.2416 0001762 280.3512 151.8911 15.96577558 2128
UTC large
Height (km)
Speed (km/s)
/
Latitude / Longitude
Inclination (degrees)
Orbital Period (minutes)
Azimuth
Elevation
Range (km)
Doppler Factor

Next 0 passes for location: London (51.5072 / 0.1276)

Sorry there are no passes over London.